Hourly Data Report for November 06, 2019

CARBERRY CS
MANITOBA
Current Station Operator: ECCC - MSC

49°54'20.900" N
99°21'26.800" W
383.50 m
5010547
71170
WZE

Download Data

Hourly Data (November 2019)
Hourly Data Report for November 6, 2019
TIME
LST
Temp Definition
°C
Dew Point Definition
°C
Rel Hum Definition
%
Precip. Amount Definition
mm

Wind Dir Definition
10's deg

Wind Spd Definition
km/h
Visibility Definition
km
Stn Press Definition
kPa
Hmdx Definition


Wind Chill Definition


Weather Definition


00:00 -12.5 -15.4 79 0.0 28 10   98.04   -18 LegendNANA
01:00 -12.4 -15.2 80 0.0 28 14   98.11   -19 LegendNANA
02:00 -12.8 -15.8 79 0.0 26 14   98.18   -20 LegendNANA
03:00 -13.3 -16.0 80 0.0 26 15   98.23   -21 LegendNANA
04:00 -13.5 -16.1 81 0.0 28 15   98.28   -21 LegendNANA
05:00 -14.7 -16.8 84 0.0 27 10   98.37   -21 LegendNANA
06:00 -14.4 -16.8 82 0.0 24 11   98.42   -21 LegendNANA
07:00 -14.7 -17.0 83 0.0 27 15   98.48   -23 LegendNANA
08:00 -14.7 -17.1 82 0.0 27 11   98.55   -21 LegendNANA
09:00 -13.0 -15.9 79 0.0 27 15   98.62   -20 LegendNANA
10:00 -11.1 -14.7 75 0.0 28 15   98.67   -18 LegendNANA
11:00 -8.7 -13.7 67 0.0 29 13   98.71   -15 LegendNANA
12:00 -8.0 -13.7 64 0.0 29 14   98.71   -14 LegendNANA
13:00 -7.6 -13.6 62 0.0 29 19   98.68   -15 LegendNANA
14:00 -8.1 -15.7 54 0.0 30 22   98.68   -16 LegendNANA
15:00 -7.7 -16.5 49 0.0 28 24   98.65   -16 LegendNANA
16:00 -9.5 -16.3 58 0.0 29 24   98.70   -18 LegendNANA
17:00 -9.6 -14.7 66 0.0 30 18   98.73   -17 LegendNANA
18:00 -10.7 -15.7 67 0.0 29 13   98.75   -17 LegendNANA
19:00 -10.9 -16.3 64 0.0 29 19   98.77   -19 LegendNANA
20:00 -13.0 -16.9 72 0.0 28 13   98.77   -20 LegendNANA
21:00 -13.0 -16.5 75 0.0 26 9   98.76   -18 LegendNANA
22:00 -11.9 -15.8 73 0.0 25 12   98.74   -18 LegendNANA
23:00 -12.6 -16.2 74 0.0 26 18   98.69   -21 LegendNANA

Notes on Data Quality.

Legend

  • E = Estimated
  • M = Missing
  • NA = Not Available*
  • [empty] = Indicates an unobserved value
Date modified: